User: anonymous   Login
Location: Vancouver
(49.2500°N, 123.1330°W)
Time: 15:13:19
(UTC-07:00)
Language:

CZ-2C R/B - Orbit

View from above orbital plane
View from above orbital plane
View from above satellite
View from above satellite

Ground track
Ground track

The orbit data is extracted from the following two-line orbital elements,

1 28480U 04046B   17114.91155703 +.00000019 +00000-0 +22679-4 0  9991
2 28480 098.1927 214.5398 0142422 022.2876 086.9117 14.25633921646626
Epoch (UTC): 24 April 2017 21:52:38
Eccentricity: 0.0142422
inclination: 98.1927°
perigee height: 704 km
apogee height: 908 km
right ascension of ascending node: 214.5398°
argument of perigee: 22.2876°
revolutions per day: 14.25633921
mean anomaly at epoch: 86.9117°
orbit number at epoch: 64662

The dashed part of the orbit path shows where the satellite is in the earth's shadow,  

DLR